sat.trackr.live / text

‹ back to catalog

STARLINK-11497 [DTC]

NORAD 62470 · 2024-254J

PAYLOAD ACTIVE UNKNOWN

§ Identity

Operator
Country
US
Launch date
2024-12-31
Launch site
AFETR
Launch vehicle
Mass (kg)
RCS (m²)

Purposes: comms

External: N2YO · Heavens-Above · Gunter

§ Orbital elements

Epoch: 2026-05-25T00:16:19.257600Z

Period
91.66 min
Inclination
43.0034°
Eccentricity
0.0003478
Mean motion
15.70944007 rev/d
Perigee alt
353.9 km
Apogee alt
358.5 km
Semi-major
6,734.3 km
B*
1.2876e-3
RAAN
123.0281°
Arg perigee
271.2448°
Mean anomaly
88.8021°
Rev number
8,140

§ Raw data

STARLINK-11497 [DTC]1 62470U 24254J   26145.01133400  .00168934  00000+0  12876-2 0  99922 62470  43.0034 123.0281 0003478 271.2448  88.8021 15.70944007 81409

JSON: /api/v1/satellites/62470 · /tle

For live sub-satellite position, see the globe view (requires WebGL).

§ Visibility from observer

Set your observer location to see the next 7 days of passes ≥ 10°. The values pass through the URL so the page stays shareable.

No JS? Fill the form by hand. The geolocation button needs JavaScript.